Date String (YYYY-MM-DD hh:mm:ss) UTC,Instrument flags,Ambient pressure (hPa),Sample flow (lpm),Bypass flow (lpm),Sample temperature (°C),Ambient temperature (°C),ASC tube jacket temperature (°C),LED temperature (°C),Box temperature (°C),Sample RH (%),Span deviation,Mass concentration (μg/m³),Mass concentration (μg/m³),Mass concentration (μg/m³)
DateTimeUTC,F1_M11,P_M11,Q1_M11,Q2_M11,T1_M11,T2_M11,T3_M11,T4_M11,T5_M11,U1_M11,ZSPAN_M11,X0_M11,X2_M11,X1_M11
2022-03-26 08:00:00,,0825.8,5.01,0.00,27.7,26.7,00.0,36.7,29.4,13.5,0000.0,0015.77,0004.90,0003.32
2022-03-26 08:01:00,,0825.7,5.00,0.00,27.7,26.7,00.0,36.7,29.4,13.5,0000.0,0015.79,0004.87,0003.32
2022-03-26 08:02:00,,0825.7,5.00,0.00,27.7,26.6,00.0,36.7,29.5,13.6,0000.0,0015.41,0004.85,0003.33
2022-03-26 08:03:00,,0825.7,4.99,0.00,27.7,26.6,00.0,36.7,29.4,13.6,0000.0,0014.99,0004.81,0003.32
2022-03-26 08:04:00,,0825.7,5.00,0.00,27.7,26.6,00.0,36.7,29.4,13.6,0000.0,0014.89,0004.80,0003.34
2022-03-26 08:05:00,,0825.8,5.01,0.00,27.7,26.7,00.0,36.7,29.5,13.6,0000.0,0014.88,0004.83,0003.36
2022-03-26 08:06:00,,0825.9,4.99,0.00,27.7,26.6,00.0,36.7,29.5,13.5,0000.0,0015.24,0004.83,0003.37
2022-03-26 08:07:00,,0825.9,4.99,0.00,27.7,26.6,00.0,36.7,29.5,13.5,0000.0,0015.15,0004.80,0003.37
2022-03-26 08:08:00,,0825.8,4.99,0.00,27.7,26.6,00.0,36.7,29.4,13.5,0000.0,0014.65,0004.82,0003.38
2022-03-26 08:09:00,,0825.7,5.00,0.00,27.6,26.6,00.0,36.7,29.4,13.6,0000.0,0014.59,0004.78,0003.38
2022-03-26 08:10:00,,0825.6,5.01,0.00,27.6,26.6,00.0,36.7,29.4,13.6,0000.0,0014.81,0004.82,0003.41
2022-03-26 08:11:00,,0825.7,5.00,0.00,27.6,26.6,00.0,36.7,29.4,13.5,0000.0,0014.09,0004.85,0003.42
2022-03-26 08:12:00,,0825.7,4.99,0.00,27.6,26.6,00.0,36.7,29.4,13.5,0000.0,0013.61,0004.91,0003.45
2022-03-26 08:13:00,,0825.7,4.99,0.00,27.6,26.6,00.0,36.7,29.4,13.5,0000.0,0013.97,0005.00,0003.48
2022-03-26 08:14:00,,0825.7,4.99,0.00,27.6,26.6,00.0,36.6,29.4,13.5,0000.0,0013.96,0005.04,0003.51
2022-03-26 08:15:00,,0825.7,5.01,0.00,27.6,26.6,00.0,36.6,29.4,13.5,0000.0,0014.36,0005.05,0003.53
2022-03-26 08:16:00,,0825.7,5.00,0.00,27.6,26.6,00.0,36.6,29.4,13.5,0000.0,0014.28,0005.07,0003.55
2022-03-26 08:17:00,,0825.7,4.99,0.00,27.6,26.5,00.0,36.6,29.4,13.5,0000.0,0014.61,0005.15,0003.59
2022-03-26 08:18:00,,0825.7,5.00,0.00,27.6,26.5,00.0,36.6,29.3,13.5,0000.0,0014.70,0005.28,0003.61
2022-03-26 08:19:00,,0825.7,5.00,0.00,27.6,26.5,00.0,36.6,29.3,13.5,0000.0,0014.51,0005.34,0003.66
2022-03-26 08:20:00,,0825.7,5.01,0.00,27.6,26.5,00.0,36.6,29.3,13.5,0000.0,0015.58,0005.39,0003.69
2022-03-26 08:21:00,,0825.7,5.01,0.00,27.6,26.5,00.0,36.6,29.3,13.5,0000.0,0016.06,0005.41,0003.71
2022-03-26 08:22:00,,0825.6,5.00,0.00,27.6,26.5,00.0,36.6,29.3,13.5,0000.0,0016.35,0005.46,0003.72
2022-03-26 08:23:00,,0825.5,5.00,0.00,27.6,26.5,00.0,36.6,29.3,13.6,0000.0,0017.22,0005.47,0003.74
2022-03-26 08:24:00,,0825.5,5.00,0.00,27.5,26.5,00.0,36.6,29.3,13.6,0000.0,0017.22,0005.39,0003.74
2022-03-26 08:25:00,,0825.6,5.00,0.00,27.5,26.5,00.0,36.6,29.3,13.6,0000.0,0017.47,0005.39,0003.76
2022-03-26 08:26:00,,0825.6,5.00,0.00,27.5,26.5,00.0,36.6,29.3,13.6,0000.0,0018.48,0005.37,0003.75
2022-03-26 08:27:00,,0825.6,5.00,0.00,27.5,26.5,00.0,36.6,29.3,13.6,0000.0,0019.39,0005.37,0003.75
2022-03-26 08:28:00,,0825.5,5.00,0.00,27.5,26.5,00.0,36.6,29.3,13.6,0000.0,0019.15,0005.33,0003.73
2022-03-26 08:29:00,,0825.5,5.01,0.00,27.5,26.5,00.0,36.5,29.3,13.6,0000.0,0018.97,0005.26,0003.73
2022-03-26 08:30:00,,0825.4,5.01,0.00,27.5,26.5,00.0,36.5,29.3,13.6,0000.0,0018.98,0005.18,0003.73
2022-03-26 08:31:00,,0825.5,5.00,0.00,27.5,26.5,00.0,36.5,29.2,13.7,0000.0,0018.59,0005.17,0003.72
2022-03-26 08:32:00,,0825.4,5.00,0.00,27.5,26.5,00.0,36.5,29.3,13.7,0000.0,0017.94,0005.15,0003.72
2022-03-26 08:33:00,,0825.4,5.00,0.00,27.5,26.5,00.0,36.5,29.2,13.7,0000.0,0017.63,0005.12,0003.71
2022-03-26 08:34:00,,0825.5,5.00,0.00,27.5,26.5,00.0,36.5,29.3,13.7,0000.0,0017.33,0005.12,0003.69
2022-03-26 08:35:00,,0825.5,5.00,0.00,27.5,26.4,00.0,36.5,29.2,13.6,0000.0,0017.42,0005.19,0003.67
2022-03-26 08:36:00,,0825.5,5.00,0.00,27.5,26.4,00.0,36.5,29.2,13.6,0000.0,0017.03,0005.19,0003.67
2022-03-26 08:37:00,,0825.6,5.01,0.00,27.5,26.4,00.0,36.5,29.2,13.7,0000.0,0016.40,0005.25,0003.68
2022-03-26 08:38:00,,0825.6,4.98,0.00,27.4,26.4,00.0,36.5,29.2,13.7,0000.0,0015.33,0005.30,0003.68
2022-03-26 08:39:00,,0825.6,5.00,0.00,27.4,26.4,00.0,36.5,29.2,13.7,0000.0,0015.16,0005.31,0003.67
2022-03-26 08:40:00,,0825.6,5.01,0.00,27.4,26.4,00.0,36.5,29.2,13.7,0000.0,0014.84,0005.35,0003.67
2022-03-26 08:41:00,,0825.5,4.99,0.00,27.4,26.4,00.0,36.5,29.2,13.7,0000.0,0014.44,0005.37,0003.65
2022-03-26 08:42:00,,0825.5,5.00,0.00,27.4,26.4,00.0,36.5,29.2,13.7,0000.0,0013.55,0005.38,0003.64
2022-03-26 08:43:00,,0825.5,5.00,0.00,27.4,26.4,00.0,36.5,29.2,13.7,0000.0,0012.71,0005.31,0003.63
2022-03-26 08:44:00,,0825.5,4.99,0.00,27.4,26.4,00.0,36.5,29.2,13.8,0000.0,0013.92,0005.29,0003.63
2022-03-26 08:45:00,,0825.5,5.00,0.00,27.4,26.4,00.0,36.4,29.2,13.7,0000.0,0013.71,0005.25,0003.62
2022-03-26 08:46:00,,0825.5,4.99,0.00,27.4,26.4,00.0,36.4,29.2,13.7,0000.0,0013.90,0005.23,0003.62
2022-03-26 08:47:00,,0825.4,5.00,0.00,27.4,26.4,00.0,36.4,29.2,13.7,0000.0,0014.06,0005.22,0003.60
2022-03-26 08:48:00,,0825.4,5.01,0.00,27.4,26.4,00.0,36.4,29.1,13.7,0000.0,0014.14,0005.18,0003.61
2022-03-26 08:49:00,,0825.4,4.99,0.00,27.4,26.3,00.0,36.4,29.1,13.7,0000.0,0014.88,0005.17,0003.62
2022-03-26 08:50:00,,0825.4,5.00,0.00,27.4,26.3,00.0,36.4,29.1,13.7,0000.0,0016.21,0005.22,0003.63
2022-03-26 08:51:00,,0825.4,5.00,0.00,27.4,26.3,00.0,36.4,29.1,13.8,0000.0,0017.01,0005.18,0003.63
2022-03-26 08:52:00,,0825.4,5.02,0.00,27.4,26.3,00.0,36.4,29.1,13.8,0000.0,0016.97,0005.14,0003.63
2022-03-26 08:53:00,,0825.4,5.00,0.00,27.4,26.3,00.0,36.4,29.1,13.8,0000.0,0017.26,0005.12,0003.63
2022-03-26 08:54:00,,0825.3,4.99,0.00,27.4,26.3,00.0,36.4,29.1,13.7,0000.0,0017.49,0005.24,0003.64
2022-03-26 08:55:00,,0825.4,5.00,0.00,27.3,26.3,00.0,36.4,29.1,13.8,0000.0,0016.69,0005.23,0003.65
2022-03-26 08:56:00,,0825.5,4.99,0.00,27.3,26.3,00.0,36.4,29.1,13.8,0000.0,0016.85,0005.20,0003.64
2022-03-26 08:57:00,,0825.4,5.00,0.00,27.3,26.3,00.0,36.4,29.1,13.8,0000.0,0016.33,0005.18,0003.65
2022-03-26 08:58:00,,0825.4,4.99,0.00,27.3,26.3,00.0,36.4,29.1,13.8,0000.0,0016.81,0005.18,0003.65
2022-03-26 08:59:00,,0825.3,5.00,0.00,27.3,26.3,00.0,36.3,29.1,13.8,0000.0,0017.11,0005.20,0003.65
